Guiria Airport


Codes: SVGI/GUI
Name: Guiria Airport
City:
Country: Venezuela
Elevation: 42 ft.
Wikipedia:

Photos at Guiria Airport


   Photos courtesy of SpottingLog. You can add your own sightings and photos by signing up for a free trial today.



No photos found.

Weather at Guiria Airport


Time (UTC)DescriptionTempratureWindCloud coverageVisibilityPressureHumidity
26-Jun-2024 00:00Light Rain28°C13 mph, E55%10000m1014hPa81%
26-Jun-2024 03:00Light Rain28°C13 mph, E61%10000m1014hPa82%
26-Jun-2024 06:00Light Rain27°C13 mph, E68%10000m1014hPa82%
26-Jun-2024 09:00Light Rain27°C11 mph, E73%10000m1014hPa82%
26-Jun-2024 12:00Light Rain27°C9 mph, E47%10000m1016hPa81%
26-Jun-2024 15:00Light Rain28°C9 mph, SE84%10000m1016hPa74%
26-Jun-2024 18:00Overcast Clouds28°C9 mph, S87%10000m1014hPa76%
26-Jun-2024 21:00Light Rain28°C4 mph, SE100%10000m1012hPa72%
27-Jun-2024 00:00Broken Clouds28°C2 mph, NE57%10000m1014hPa72%
27-Jun-2024 03:00Scattered Clouds27°C9 mph, E27%10000m1015hPa77%
27-Jun-2024 06:00Few Clouds27°C9 mph, E22%10000m1013hPa78%
27-Jun-2024 09:00Light Rain27°C9 mph, E48%10000m1013hPa78%
27-Jun-2024 12:00Scattered Clouds27°C9 mph, E37%10000m1014hPa76%
27-Jun-2024 15:00Scattered Clouds28°C9 mph, E40%10000m1014hPa75%
27-Jun-2024 18:00Light Rain28°C4 mph, E24%10000m1012hPa71%
27-Jun-2024 21:00Light Rain29°C9 mph, E18%10000m1011hPa70%
28-Jun-2024 00:00Light Rain28°C16 mph, E48%10000m1012hPa79%
28-Jun-2024 03:00Scattered Clouds27°C11 mph, E25%10000m1014hPa79%
28-Jun-2024 06:00Scattered Clouds27°C9 mph, E27%10000m1012hPa80%
28-Jun-2024 09:00Broken Clouds27°C9 mph, E59%10000m1012hPa81%
28-Jun-2024 12:00Broken Clouds27°C9 mph, E59%10000m1013hPa79%
28-Jun-2024 15:00Light Rain27°C11 mph, E14%10000m1013hPa80%
28-Jun-2024 18:00Moderate Rain28°C9 mph, E23%10000m1012hPa75%
28-Jun-2024 21:00Light Rain28°C9 mph, NE47%10000m1011hPa73%
29-Jun-2024 00:00Light Rain27°C9 mph, E71%10000m1012hPa78%
29-Jun-2024 03:00Light Rain27°C7 mph, E93%10000m1014hPa80%
29-Jun-2024 06:00Light Rain26°C4 mph, E95%10000m1012hPa82%
29-Jun-2024 09:00Light Rain26°C2 mph, NE91%10000m1013hPa81%
29-Jun-2024 12:00Light Rain27°C4 mph, E92%10000m1014hPa78%
29-Jun-2024 15:00Light Rain27°C9 mph, E97%10000m1014hPa77%
29-Jun-2024 18:00Light Rain28°C7 mph, E98%10000m1013hPa72%
29-Jun-2024 21:00Light Rain28°C11 mph, E100%10000m1012hPa75%
30-Jun-2024 00:00Light Rain28°C13 mph, E100%10000m1014hPa80%
30-Jun-2024 03:00Light Rain27°C13 mph, E99%10000m1015hPa83%
30-Jun-2024 06:00Overcast Clouds27°C13 mph, E96%10000m1014hPa82%
30-Jun-2024 09:00Light Rain27°C11 mph, E93%10000m1014hPa85%
30-Jun-2024 12:00Light Rain27°C9 mph, E75%10000m1015hPa82%
30-Jun-2024 15:00Light Rain27°C9 mph, E100%10000m1015hPa78%
30-Jun-2024 18:00Light Rain28°C7 mph, E100%10000m1014hPa75%
30-Jun-2024 21:00Light Rain28°C7 mph, NE77%10000m1012hPa74%